Madrid, Spain

11:49 PM CEST on August 17, 2017 (GMT +0200)
Madrid-Barajas Airport

Weather History for LEMD - October, 2012

Change the Weather History Date:

Wednesday, October 10, 2012

  Actual Average Record
Temperature  
Mean Temperature 68 °F -  
Max Temperature 79 °F 63 °F 84 °F (1997)
Min Temperature 58 °F 44 °F 41 °F (1998)
Cooling Degree Days 4    
Growing Degree Days 18 (Base 50)    
Moisture  
Dew Point 58 °F    
Average Humidity 65    
Maximum Humidity 94    
Minimum Humidity 38    
Precipitation  
Precipitation 0.00 in 0.06 in - ()
Sea Level Pressure  
Sea Level Pressure 30.00 in    
Wind  
Wind Speed 5 mph ()    
Max Wind Speed 16 mph    
Max Gust Speed 26 mph    
Visibility 8.4 miles    
Events      
Averages and records for this station are not official NWS values.
T = Trace of Precipitation, MM = Missing Value Source: Averaged Metar Reports

Daily Weather History Graph

Daily Weather History Graph

Search for Another Location

Airport or City:

Trip Planner

Search our weather history database for the weather conditions in past years. The results will help you decide how hot, cold, wet, or windy it might be!

Date:

Astronomy

Oct. 10, 2012 Rise Set
Actual Time 8:20 AM CEST 7:41 PM CEST
Civil Twilight 7:52 AM CEST 8:08 PM CEST
Nautical Twilight 7:21 AM CEST 8:40 PM CEST
Astronomical Twilight 6:49 AM CEST 9:11 PM CEST
Moon 2:40 AM CEST (10/10) 4:36 PM CEST (10/10)
Length of Visible Light 12h 15m
Length of Day
11h 21m
Waning Crescent, 30% of the Moon is Illuminated
Oct 10
Waning Crescent
Oct 15
New
Oct 22
First Quarter
Oct 29
Full
Nov 7
Last Quarter

Hourly Weather History & Observations

Time (CEST) Temp. Heat Index Dew Point Humidity Pressure Visibility Wind Dir Wind Speed Gust Speed Precip Events Conditions
12:00 AM 69.8 °F - 57.2 °F 64% 30.06 in - ESE 4.6 mph - N/A   Clear
12:30 AM 69.8 °F - 57.2 °F 64% 30.06 in - SE 3.5 mph - N/A   Clear
1:00 AM 69.8 °F - 57.2 °F 64% 30.06 in - SSE 6.9 mph - N/A   Clear
1:30 AM 68.0 °F - 57.2 °F 68% 30.04 in - Variable 2.3 mph - N/A   Clear
2:00 AM 65 °F - 56 °F 64% 29.99 in 19 mi East 2.3 mph - -  
2:00 AM 68.0 °F - 57.2 °F 68% 30.04 in - Variable 2.3 mph - N/A   Clear
2:30 AM 66.2 °F - 57.2 °F 73% 30.04 in - Variable 2.3 mph - N/A   Clear
3:00 AM 64.4 °F - 57.2 °F 77% 30.04 in - Variable 1.2 mph - N/A   Clear
3:30 AM 64.4 °F - 57.2 °F 77% 30.04 in - Calm Calm - N/A   Clear
4:30 AM 62.6 °F - 57.2 °F 82% 30.04 in - Calm Calm - N/A   Clear
5:00 AM 62.6 °F - 57.2 °F 82% 30.01 in - North 3.5 mph - N/A   Clear
5:30 AM 60.8 °F - 57.2 °F 88% 30.01 in - North 3.5 mph - N/A   Clear
6:00 AM 62.6 °F - 57.2 °F 82% 30.04 in - NNW 3.5 mph - N/A   Clear
6:30 AM 60.8 °F - 55.4 °F 82% 30.01 in - North 3.5 mph - N/A   Clear
7:00 AM 60.8 °F - 57.2 °F 88% 30.04 in - Calm Calm - N/A   Clear
7:30 AM 60.8 °F - 57.2 °F 88% 30.04 in - Calm Calm - N/A   Clear
8:00 AM 58 °F - 54 °F 81% 30.00 in 19 mi North 4.6 mph - -   Scattered Clouds
8:00 AM 59.0 °F - 57.2 °F 94% 30.04 in - North 3.5 mph - N/A   Clear
8:30 AM 59.0 °F - 57.2 °F 94% 30.04 in - North 1.2 mph - N/A   Clear
9:00 AM 60.8 °F - 57.2 °F 88% 30.04 in - Calm Calm - N/A   Clear
9:30 AM 62.6 °F - 57.2 °F 82% 30.04 in - North 4.6 mph - N/A   Clear
10:00 AM 66.2 °F - 57.2 °F 73% 30.04 in - WSW 1.2 mph - N/A   Clear
10:30 AM 66.2 °F - 57.2 °F 73% 30.04 in - Variable 2.3 mph - N/A   Clear
11:00 AM 68.0 °F - 57.2 °F 68% 30.06 in - Variable 1.2 mph - N/A   Clear
11:30 AM 69.8 °F - 59.0 °F 68% 30.06 in - Calm Calm - N/A   Clear
12:00 PM 71.6 °F - 59.0 °F 64% 30.06 in - Variable 2.3 mph - N/A   Clear
12:30 PM 73.4 °F - 60.8 °F 65% 30.04 in - SSW 3.5 mph - N/A   Clear
1:00 PM 75.2 °F - 60.8 °F 61% 30.04 in - SW 8.1 mph 21.9 mph N/A   Clear
1:30 PM 77.0 °F - 60.8 °F 57% 30.04 in - WSW 8.1 mph - N/A   Clear
2:00 PM 76 °F - 59 °F 46% 29.92 in 19 mi WSW 9.2 mph - -   Mostly Cloudy
2:00 PM 77.0 °F - 60.8 °F 57% 30.01 in 6.2 mi WSW 9.2 mph 21.9 mph N/A   Partly Cloudy
3:00 PM 78.8 °F - 60.8 °F 54% 29.98 in 6.2 mi WSW 9.2 mph - N/A   Partly Cloudy
3:30 PM 78.8 °F - 59.0 °F 51% 29.98 in 6.2 mi WSW 10.4 mph - N/A   Partly Cloudy
4:00 PM 78.8 °F - 60.8 °F 54% 29.98 in 6.2 mi SW 11.5 mph 26.5 mph N/A   Partly Cloudy
4:30 PM 80.6 °F 81.5 °F 60.8 °F 51% 29.95 in 6.2 mi WSW 11.5 mph - N/A   Scattered Clouds
5:00 PM 80.6 °F 81.1 °F 59.0 °F 48% 29.95 in 6.2 mi SW 11.5 mph 25.3 mph N/A   Scattered Clouds
5:30 PM 80.6 °F 81.1 °F 59.0 °F 48% 29.95 in 6.2 mi WSW 16.1 mph - N/A   Scattered Clouds
6:00 PM 80.6 °F 80.8 °F 57.2 °F 45% 29.92 in 6.2 mi SW 16.1 mph - N/A   Scattered Clouds
6:30 PM 78.8 °F - 57.2 °F 47% 29.95 in 6.2 mi WSW 16.1 mph - N/A   Scattered Clouds
7:00 PM 78.8 °F - 57.2 °F 47% 29.95 in 6.2 mi WSW 16.1 mph - N/A   Scattered Clouds
7:30 PM 78.8 °F - 57.2 °F 47% 29.95 in 6.2 mi WSW 9.2 mph 25.3 mph N/A   Scattered Clouds
8:00 PM 75 °F - 54 °F 38% 29.84 in 19 mi WSW 13.8 mph - -   Scattered Clouds
8:00 PM 77.0 °F - 57.2 °F 50% 29.92 in 6.2 mi WSW 11.5 mph - N/A   Partly Cloudy
8:30 PM 77.0 °F - 55.4 °F 47% 29.95 in 6.2 mi WSW 15.0 mph - N/A   Partly Cloudy
9:00 PM 75.2 °F - 57.2 °F 53% 29.95 in 6.2 mi West 10.4 mph - N/A   Partly Cloudy
9:30 PM 75.2 °F - 57.2 °F 53% 29.95 in 6.2 mi Variable 9.2 mph 26.5 mph N/A   Partly Cloudy
10:00 PM 73.4 °F - 57.2 °F 57% 29.98 in 6.2 mi WSW 9.2 mph - N/A   Partly Cloudy
10:30 PM 73.4 °F - 59.0 °F 61% 29.95 in 6.2 mi WSW 10.4 mph 26.5 mph N/A   Partly Cloudy
11:00 PM 71.6 °F - 59.0 °F 64% 29.98 in 6.2 mi WSW 10.4 mph 21.9 mph N/A   Partly Cloudy
11:30 PM 71.6 °F - 59.0 °F 64% 29.98 in 6.2 mi West 5.8 mph - N/A   Partly Cloudy